Regional Weather Roundup
Issued by NWS

Home | Current Version | Previous Version | Graphics & Text | Print | Product List | Glossary On
Versions: 1 2 3 4 5 6 7 8 9 10 11 12 13 14 15 16 17 18 19 20 21 22 23 24 25 26 27 28 29 30 31 32 33 34 35 36 37 38 39 40 41 42 43 44 45 46 47 48 49 50
139
ASUS43 KMPX 281310
RWRMN
WEATHER ROUNDUP FOR MINNESOTA
NATIONAL WEATHER SERVICE TWIN CITIES/CHANHASSEN MN
800 AM CDT FRI JUL 28 2017


NOTE: "FAIR" INDICATES FEW OR NO CLOUDS BELOW 12,000 FEET WITH NO
SIGNIFICANT WEATHER AND/OR OBSTRUCTIONS TO VISIBILITY. N/A MEANS
CURRENT SKY AND/OR WEATHER CONDITIONS ARE NOT AVAILABLE.

MNZ060>063-068>070-281400-
   Twin Cities Metro

CITY           SKY/WX    TMP DP  RH WIND       PRES   REMARKS
TWIN CITIES    SUNNY     70  60  70 VRB5      30.09R
ST PAUL        SUNNY     69  62  78 CALM      30.09S
CRYSTAL        SUNNY     67  59  75 NE7       30.08S
BLAINE         MOSUNNY   66  64  94 NE6       30.10R
LAKEVILLE      SUNNY     66  64  94 CALM      30.09S
EDEN PRAIRIE   SUNNY     72  62  71 NE5       30.08R
SOUTH ST PAUL  SUNNY     68  60  74 CALM      30.09S
LAKE ELMO      FAIR      64  61  88 E6        30.11R
$$
MNZ001>005-007-008-013>017-022>024-027-028-281400-
   Northwest Minnesota

CITY           SKY/WX    TMP DP  RH WIND       PRES   REMARKS
BEMIDJI        SUNNY     62  59  92 CALM      30.13R
HALLOCK        SUNNY     63  61  94 SE3       30.09R
ROSEAU         SUNNY     64  57  77 S3        30.11R
WARROAD        SUNNY     64  61  88 SW5       30.12R FOG
THIEF RVR FALL SUNNY     66  61  84 CALM      30.12S
CROOKSTON      SUNNY     66  63  88 SE5       30.10S
FOSSTON        SUNNY     66  61  82 CALM      30.12S
DETROIT LAKES  SUNNY     64  61  88 CALM      30.13R
MOORHEAD       PTSUNNY   66  61  82 CALM      30.10R
PARK RAPIDS    SUNNY     65  61  87 CALM      30.12S
MAHNOMEN       FAIR      65  60  85 E3        30.11S
$$
MNZ006-009>011-018-025>026-281400-
   North Central Minnesota

CITY           SKY/WX    TMP DP  RH WIND       PRES   REMARKS
BAUDETTE       SUNNY     64  59  83 CALM      30.11R
FLAG ISLAND    SUNNY     72  64  78 CALM      30.09S
INTL FALLS     SUNNY     63  59  87 CALM      30.12R
WASKISH        MOSUNNY   64  64 100 CALM      30.12S
BIG FORK       MOSUNNY   63  61  94 CALM      30.13S
LONGVILLE      SUNNY     61  61 100 SE3       30.13S
GRAND RAPIDS   SUNNY     62  58  86 SE7       30.15F
CRANE LAKE     SUNNY     59  57  94 CALM      30.14S
ORR            SUNNY     59  55  88 S3        30.12R
COOK             N/A     61  57  88 CALM      30.15S
WALKER         FAIR      62  59  89 CALM      30.13R
$$
MNZ012-019>021-037-281400-
   Northeast Minnesota

CITY           SKY/WX    TMP DP  RH WIND       PRES   REMARKS
DULUTH         SUNNY     63  57  81 MISG      30.15R
ELY            MOSUNNY   59  55  88 CALM      30.15R
HIBBING        SUNNY     59  57  93 CALM      30.15S
EVELETH        SUNNY     60  56  87 CALM      30.16S
DULUTH HARBOR  SUNNY     64  57  77 CALM      30.14S
TWO HARBORS    SUNNY     64  61  88 CALM      30.13R
SILVER BAY     SUNNY     61  57  88 CALM      30.13S
GRAND MARAIS     N/A     62  56  80 SW7       30.12S
G MARAIS ARPRT SUNNY     64  54  68 CALM      30.17S
$$
MNZ029>031-032-039>041-046>048-054>057-064-281400-
   West Central Minnesota

CITY           SKY/WX    TMP DP  RH WIND       PRES   REMARKS
FERGUS FALLS   PTSUNNY   70  63  78 SE5       30.09S
WHEATON        CLOUDY    64  61  88 CALM      30.11R FOG
MORRIS         CLOUDY    66  63  88 E3        30.09S
ALEXANDRIA     PTSUNNY   69  63  81 E3        30.13R
ELBOW LAKE     FAIR      69  64  86 SE5       30.11S
WADENA         SUNNY     63  63 100 E3        30.12S
GLENWOOD       PTSUNNY   68  63  83 E3        30.12S
APPLETON       CLOUDY    66  61  82 CALM      30.09S
BENSON         CLOUDY    70  63  78 CALM      30.11S
ORTONVILLE     CLOUDY    68  63  83 CALM        N/A
MADISON        CLOUDY    70  70 100 CALM      30.10R
WILLMAR        FAIR      70  66  88 E5        30.11S
$$
MNZ033>034-036-042>043-049>051-058-059-281400-
   Central Minnesota

CITY           SKY/WX    TMP DP  RH WIND       PRES   REMARKS
ST CLOUD       SUNNY     65  62  90 E7        30.11R
SAUK CENTRE    FAIR      66  62  86 CALM      30.11S
PAYNESVILLE    MOSUNNY   66  62  89 CALM      30.11S
AITKIN         SUNNY     61  57  88 CALM      30.13S
PINE RIVER     SUNNY     63  63 100 CALM      30.16S
BRAINERD       SUNNY     65  62  90 NE3       30.13S
STAPLES        SUNNY     61  61 100 CALM      30.12F
LONG PRAIRIE   FAIR      63  63 100 CALM      30.12S
LITTLE FALLS   SUNNY     63  61  94 CALM      30.11S
LITCHFIELD     MOSUNNY   70  66  88 CALM      30.11R
BUFFALO        SUNNY     67  61  81 NE5       30.11S
MAPLE LAKE     SUNNY     66  64  92 CALM      30.11S
HUTCHINSON     SUNNY     70  65  83 NE3       30.11R
$$
MNZ037-044-045-052-053-281400-
   East Central Minnesota

CITY           SKY/WX    TMP DP  RH WIND       PRES   REMARKS
PRINCETON      SUNNY     64  63  94 CALM      30.11S
MORA           SUNNY     63  59  88 CALM      30.14S
CAMBRIDGE      SUNNY     66  61  82 CALM      30.10R
RUSH CITY      SUNNY     63  60  91 CALM      30.12R
MOOSE LAKE     SUNNY     61  57  88 CALM      30.13S
HINCKLEY       FAIR      63  61  94 N3        30.13R
CLOQUET        SUNNY     61  54  77 CALM      30.15R
MCGREGOR       SUNNY     61  59  94 CALM      30.15S
$$
MNZ071>073-080-081-089-090-097-098-281400-
   Southwest Minnesota

CITY           SKY/WX    TMP DP  RH WIND       PRES   REMARKS
MONTEVIDEO     PTSUNNY   66  63  88 CALM      30.10R
CANBY          CLOUDY    67  64  90 CALM      30.12R
MARSHALL       CLOUDY    65  63  93 NW3       30.11R
REDWOOD FALLS  CLOUDY    67  61  81 E6        30.09R
OLIVIA         PTSUNNY   70  64  83 E3        30.09S
PIPESTONE      CLOUDY    68  61  77 CALM      30.11S
WINDOM         CLOUDY    66  63  88 CALM      30.10S
WORTHINGTON    MOSUNNY   63  60  90 CALM      30.12R
JACKSON        CLOUDY    64  63  94 CALM      30.10S
TRACY          MOSUNNY   66  65  94 NW3       30.11R
SLAYTON        RAIN      63  60  90 CALM      30.12R
$$
MNZ065>067-074>077-082>085-091>093-281400-
   South Central Minnesota

CITY           SKY/WX    TMP DP  RH WIND       PRES   REMARKS
MANKATO        SUNNY     70  64  81 MISG      30.09R
NEW ULM        SUNNY     70  61  73 NE3       30.09S
ST JAMES       PTSUNNY   66  63  88 CALM      30.10R
FAIRMONT       CLOUDY    69  64  84 NE5       30.10R
GLENCOE        SUNNY     67  65  93 CALM      30.09R
FARIBAULT      SUNNY     66  63  88 NE3       30.09S
OWATONNA       SUNNY     66  63  88 NE5       30.09R
WASECA         SUNNY     64  61  88 NE6       30.10R
ALBERT LEA     MOSUNNY   70  64  83 CALM      30.09R
$$
MNZ078>079-086>088-094>096-281400-
   Southeast Minnesota

CITY           SKY/WX    TMP DP  RH WIND       PRES   REMARKS
ROCHESTER      SUNNY     67  63  87 NE7       30.09R
RED WING       SUNNY     66  61  82 CALM      30.08R
STANTON        SUNNY     64  63  94 CALM      30.08R
DODGE CENTER   SUNNY     64  61  88 NE3       30.09S
WINONA         SUNNY     68  64  88 CALM      30.08R
AUSTIN         SUNNY     66  63  88 CALM      30.08R
PRESTON        SUNNY     65  61  87 NE5       30.09R
$$
ABBREVIATIONS USED IN REMARKS
   TC - TEMPERATURES IN CELSIUS
  WCI - WIND CHILL INDEX
   HX - HEAT INDEX
  VSB - VISIBILITY
$$




USA.gov is the U.S. government's official web portal to all federal, state and local government web resources and services.